Weather History for Aurora, NE

Change the Weather History Date:

Sunday, September 29, 2013

  Actual Average Record
Temperature  
Mean Temperature 62 °F -  
Max Temperature 78 °F 73 °F 90 °F (1971)
Min Temperature 45 °F 47 °F 24 °F (1984)
Degree Days  
Heating Degree Days 4    
Growing Degree Days 12 (Base 50)    
Moisture  
Dew Point 43 °F    
Average Humidity 53    
Maximum Humidity 87    
Minimum Humidity 27    
Precipitation  
Precipitation 0.00 in - - ()
Sea Level Pressure  
Sea Level Pressure 29.97 in    
Wind  
Wind Speed 9 mph (SSW)    
Max Wind Speed 18 mph    
Max Gust Speed 25 mph    
Visibility 10 miles    
Events      
Averages and records for this station are not official NWS values.
T = Trace of Precipitation, MM = Missing Value Source: NWS Daily Summary

Daily Weather History Graph

Daily Weather History Graph

Search for Another Location

Airport:

Trip Planner

Search our weather history database for the weather conditions in past years. The results will help you decide how hot, cold, wet, or windy it might be!

Date:

Astronomy

Sep. 29, 2013 Rise Set
Actual Time 7:26 AM CDT 7:16 PM CDT
Civil Twilight 6:59 AM CDT 7:44 PM CDT
Nautical Twilight 6:27 AM CDT 8:15 PM CDT
Astronomical Twilight 5:55 AM CDT 8:48 PM CDT
Moon 2:07 AM CDT (9/29) 4:15 PM CDT (9/29)
Length of Visible Light 12h 44m
Length of Day
11h 50m
Waning Crescent, 27% of the Moon is Illuminated
Sep 29
Waning Crescent
Oct 4
New
Oct 11
First Quarter
Oct 18
Full
Oct 26
Last Quarter

Hourly Weather History & Observations

Time (CDT) Temp. Windchill Dew Point Humidity Pressure Visibility Wind Dir Wind Speed Gust Speed Precip Events Conditions
12:15 AM 50.9 °F - 42.4 °F 73% 30.07 in 10.0 mi SSW 6.9 mph - N/A   Clear
12:35 AM 48.2 °F - 43.7 °F 84% 30.07 in 10.0 mi SSW 5.8 mph - N/A   Clear
12:55 AM 47.8 °F - 42.8 °F 83% 30.07 in 10.0 mi SSW 5.8 mph - N/A   Clear
1:15 AM 47.5 °F - 43.0 °F 84% 30.07 in 10.0 mi SSW 5.8 mph - N/A   Clear
1:35 AM 47.7 °F - 42.8 °F 83% 30.07 in 10.0 mi SSW 5.8 mph - N/A   Clear
1:55 AM 47.3 °F - 42.3 °F 83% 30.08 in 10.0 mi SSW 5.8 mph - N/A   Clear
2:15 AM 47.8 °F - 42.3 °F 81% 30.07 in 10.0 mi SW 5.8 mph - N/A   Clear
2:35 AM 48.2 °F - 42.4 °F 80% 30.08 in 10.0 mi SW 6.9 mph - N/A   Clear
2:55 AM 48.2 °F - 42.4 °F 80% 30.07 in 10.0 mi SW 8.1 mph - N/A   Clear
3:15 AM 48.7 °F - 42.1 °F 78% 30.06 in 10.0 mi SW 8.1 mph - N/A   Clear
3:35 AM 49.1 °F - 41.9 °F 76% 30.06 in 10.0 mi SW 8.1 mph - N/A   Clear
3:55 AM 48.7 °F - 41.9 °F 77% 30.06 in 10.0 mi SW 8.1 mph - N/A   Clear
4:15 AM 48.2 °F - 41.9 °F 79% 30.06 in 10.0 mi SW 9.2 mph - N/A   Clear
4:35 AM 48.0 °F - 42.1 °F 80% 30.05 in 10.0 mi SW 8.1 mph - N/A   Clear
4:55 AM 47.7 °F - 42.1 °F 81% 30.05 in 10.0 mi SW 8.1 mph - N/A   Clear
5:15 AM 47.7 °F - 42.3 °F 82% 30.05 in 10.0 mi SW 8.1 mph - N/A   Clear
5:35 AM 46.9 °F - 42.3 °F 84% 30.05 in 10.0 mi SW 6.9 mph - N/A   Clear
6:55 AM 45.3 °F 42.3 °F 41.5 °F 87% 30.05 in 10.0 mi SSW 5.8 mph - N/A   Clear
8:17 AM 48.2 °F - 44.6 °F 87% 30.04 in 10.0 mi SSW 5.8 mph - N/A   Clear
8:35 AM 50.4 °F - 43.7 °F 78% 30.04 in 10.0 mi SW 5.8 mph - N/A   Clear
8:36 AM 51.8 °F - 44.6 °F 76% 30.04 in 10.0 mi SW 6.9 mph - N/A   Clear
8:55 AM 52.7 °F - 44.1 °F 72% 30.04 in 10.0 mi SW 8.1 mph - N/A   Clear
9:15 AM 54.7 °F - 44.2 °F 68% 30.04 in 10.0 mi SW 10.4 mph - N/A   Clear
9:35 AM 56.8 °F - 44.6 °F 64% 30.05 in 10.0 mi SW 6.9 mph - N/A   Clear
9:55 AM 59.0 °F - 44.4 °F 58% 30.05 in 10.0 mi SW 11.5 mph - N/A   Clear
10:15 AM 61.9 °F - 45.5 °F 55% 30.05 in 10.0 mi SW 9.2 mph - N/A   Clear
10:35 AM 64.4 °F - 44.4 °F 48% 30.04 in 10.0 mi SW 11.5 mph - N/A   Clear
10:55 AM 67.5 °F - 43.7 °F 42% 30.04 in 10.0 mi SW 10.4 mph - N/A   Clear
11:15 AM 69.1 °F - 41.0 °F 36% 30.03 in 10.0 mi SW 13.8 mph - N/A   Clear
11:35 AM 70.3 °F - 40.6 °F 34% 30.02 in 10.0 mi SW 16.1 mph 19.6 mph N/A   Clear
11:55 AM 71.8 °F - 41.2 °F 33% 30.01 in 10.0 mi SW 16.1 mph 19.6 mph N/A   Clear
12:15 PM 72.9 °F - 41.5 °F 32% 30.00 in 10.0 mi SSW 17.3 mph 21.9 mph N/A   Clear
12:35 PM 73.9 °F - 41.2 °F 31% 29.99 in 10.0 mi SSW 12.7 mph 24.2 mph N/A   Clear
12:55 PM 75.2 °F - 40.6 °F 29% 29.99 in 10.0 mi SSW 13.8 mph 23.0 mph N/A   Clear
1:15 PM 76.1 °F - 42.4 °F 30% 29.98 in 10.0 mi SSW 12.7 mph 19.6 mph N/A   Clear
1:35 PM 76.3 °F - 42.1 °F 29% 29.96 in 10.0 mi SSW 15.0 mph - N/A   Clear
1:55 PM 77.0 °F - 40.6 °F 27% 29.95 in 10.0 mi SW 16.1 mph 24.2 mph N/A   Clear
2:15 PM 78.1 °F - 43.2 °F 29% 29.93 in 10.0 mi SSW 18.4 mph 25.3 mph N/A   Clear
2:35 PM 78.1 °F - 41.7 °F 27% 29.92 in 10.0 mi South 17.3 mph 24.2 mph N/A   Clear
2:55 PM 77.7 °F - 41.0 °F 27% 29.91 in 10.0 mi SSW 18.4 mph 23.0 mph N/A   Clear
3:15 PM 77.9 °F - 42.1 °F 28% 29.91 in 10.0 mi SSW 16.1 mph 24.2 mph N/A   Clear
3:35 PM 77.9 °F - 41.4 °F 27% 29.90 in 10.0 mi South 17.3 mph 24.2 mph N/A   Clear
3:55 PM 78.1 °F - 42.4 °F 28% 29.90 in 10.0 mi South 17.3 mph 24.2 mph N/A   Clear
4:15 PM 77.9 °F - 41.5 °F 27% 29.89 in 10.0 mi SSW 18.4 mph 24.2 mph N/A   Clear
4:35 PM 77.9 °F - 41.7 °F 27% 29.89 in 10.0 mi South 16.1 mph 24.2 mph N/A   Clear
4:55 PM 77.0 °F - 41.2 °F 28% 29.88 in 10.0 mi SSW 16.1 mph 24.2 mph N/A   Clear
5:15 PM 76.8 °F - 41.2 °F 28% 29.88 in 10.0 mi South 16.1 mph 23.0 mph N/A   Clear
5:35 PM 76.5 °F - 40.8 °F 28% 29.87 in 10.0 mi South 13.8 mph 20.7 mph N/A   Clear
5:55 PM 74.5 °F - 41.0 °F 30% 29.87 in 10.0 mi South 11.5 mph 17.3 mph N/A   Clear
6:15 PM 73.6 °F - 41.7 °F 32% 29.86 in 10.0 mi South 11.5 mph - N/A   Clear
6:35 PM 72.5 °F - 42.4 °F 34% 29.87 in 10.0 mi South 10.4 mph - N/A   Clear
6:55 PM 70.9 °F - 43.2 °F 37% 29.86 in 10.0 mi South 9.2 mph - N/A   Clear
7:15 PM 69.6 °F - 43.0 °F 38% 29.87 in 10.0 mi South 8.1 mph - N/A   Clear
7:35 PM 68.0 °F - 43.3 °F 41% 29.88 in 10.0 mi South 5.8 mph - N/A   Clear
7:55 PM 66.6 °F - 43.3 °F 43% 29.87 in 10.0 mi South 10.4 mph - N/A   Clear
8:15 PM 65.3 °F - 44.2 °F 46% 29.87 in 10.0 mi South 11.5 mph - N/A   Clear
8:35 PM 64.4 °F - 45.0 °F 49% 29.87 in 10.0 mi South 9.2 mph - N/A   Clear
8:55 PM 63.7 °F - 45.0 °F 51% 29.87 in 10.0 mi South 10.4 mph - N/A   Clear
9:15 PM 61.9 °F - 45.3 °F 55% 29.89 in 10.0 mi South 6.9 mph - N/A   Clear
9:35 PM 61.9 °F - 44.4 °F 53% 29.88 in 10.0 mi South 9.2 mph - N/A   Clear
9:55 PM 61.7 °F - 43.9 °F 52% 29.87 in 10.0 mi South 12.7 mph - N/A   Clear
10:15 PM 60.8 °F - 43.7 °F 53% 29.87 in 10.0 mi South 11.5 mph - N/A   Clear
10:35 PM 60.8 °F - 43.2 °F 52% 29.87 in 10.0 mi South 13.8 mph - N/A   Clear
10:55 PM 60.8 °F - 42.8 °F 52% 29.88 in 10.0 mi South 11.5 mph 16.1 mph N/A   Clear
11:15 PM 60.8 °F - 43.0 °F 52% 29.87 in 10.0 mi South 12.7 mph - N/A   Clear
11:35 PM 60.3 °F - 43.2 °F 53% 29.87 in 10.0 mi South 12.7 mph - N/A   Clear
11:55 PM 59.4 °F - 43.5 °F 56% 29.87 in 10.0 mi South 12.7 mph - N/A   Clear